Sumter, SC

8:09 PM EST on February 10, 2016 (GMT -0500)
Sumter Municipal

Weather History for KSMS - November, 2013

Change the Weather History Date:

Thursday, November 7, 2013

  Actual Average Record
Temperature  
Mean Temperature 64 °F -  
Max Temperature 75 °F 68 °F 82 °F (2015)
Min Temperature 51 °F 40 °F 28 °F (2010)
Degree Days  
Heating Degree Days 1    
Growing Degree Days 14 (Base 50)    
Moisture  
Dew Point 56 °F    
Average Humidity 79    
Maximum Humidity 100    
Minimum Humidity 44    
Precipitation  
Precipitation 0.00 in - - ()
Sea Level Pressure  
Sea Level Pressure 30.04 in    
Wind  
Wind Speed 2 mph (NW)    
Max Wind Speed 14 mph    
Max Gust Speed 18 mph    
Visibility 10 miles    
Events      
Averages and records for this station are not official NWS values.
T = Trace of Precipitation, MM = Missing Value Source: NWS Daily Summary

Daily Weather History Graph

Daily Weather History Graph

Search for Another Location

Airport or City:

Trip Planner

Search our weather history database for the weather conditions in past years. The results will help you decide how hot, cold, wet, or windy it might be!

Date:

Astronomy

Nov. 07, 2013 Rise Set
Actual Time 6:46 AM EST 5:23 PM EST
Civil Twilight 6:20 AM EST 5:49 PM EST
Nautical Twilight 5:50 AM EST 6:19 PM EST
Astronomical Twilight 5:21 AM EST 6:48 PM EST
Moon 10:51 AM EST (11/7) 9:34 PM EST (11/7)
Length of Visible Light 11h 28m
Length of Day
10h 36m
Waxing Crescent, 22% of the Moon is Illuminated
Nov 7
Waxing Crescent
Nov 10
First Quarter
Nov 17
Full
Nov 25
Last Quarter
Dec 2
New

Hourly Weather History & Observations

Time (EST) Temp. Dew Point Humidity Pressure Visibility Wind Dir Wind Speed Gust Speed Precip Events Conditions
12:15 AM 60.8 °F 59.0 °F 94% 30.12 in 10.0 mi Calm Calm - N/A   Mostly Cloudy
12:35 AM 60.8 °F 59.0 °F 94% 30.12 in 10.0 mi Calm Calm - N/A   Scattered Clouds
12:55 AM 60.8 °F 59.0 °F 94% 30.11 in 10.0 mi Calm Calm - N/A   Scattered Clouds
1:15 AM 60.8 °F 59.0 °F 94% 30.10 in 10.0 mi Calm Calm - N/A   Partly Cloudy
1:35 AM 59.0 °F 59.0 °F 100% 30.09 in 10.0 mi Calm Calm - N/A   Mostly Cloudy
1:55 AM 59.0 °F 57.2 °F 94% 30.09 in 10.0 mi Calm Calm - N/A   Mostly Cloudy
2:15 AM 59.0 °F 59.0 °F 100% 30.08 in 10.0 mi Calm Calm - N/A   Mostly Cloudy
2:55 AM 60.8 °F 59.0 °F 94% 30.06 in 10.0 mi Calm Calm - N/A   Overcast
3:15 AM 60.8 °F 59.0 °F 94% 30.06 in 10.0 mi Calm Calm - N/A   Overcast
3:35 AM 60.8 °F 59.0 °F 94% 30.06 in 10.0 mi Calm Calm - N/A   Overcast
3:55 AM 60.8 °F 59.0 °F 94% 30.06 in 10.0 mi Calm Calm - N/A   Overcast
4:15 AM 60.8 °F 59.0 °F 94% 30.04 in 10.0 mi Calm Calm - N/A   Overcast
4:35 AM 60.8 °F 59.0 °F 94% 30.05 in 10.0 mi Calm Calm - N/A   Overcast
4:55 AM 59.0 °F 59.0 °F 100% 30.05 in 10.0 mi Calm Calm - N/A   Overcast
5:15 AM 59.0 °F 59.0 °F 100% 30.04 in 10.0 mi Calm Calm - N/A   Overcast
5:35 AM 59.0 °F 59.0 °F 100% 30.04 in 10.0 mi Calm Calm - N/A   Overcast
5:55 AM 59.0 °F 57.2 °F 94% 30.04 in 9.0 mi Calm Calm - N/A   Overcast
6:15 AM 57.2 °F 57.2 °F 100% 30.03 in 8.0 mi Calm Calm - N/A   Scattered Clouds
6:35 AM 59.0 °F 57.2 °F 94% 30.04 in 8.0 mi Calm Calm - N/A   Scattered Clouds
6:55 AM 57.2 °F 57.2 °F 100% 30.04 in 7.0 mi Calm Calm - N/A   Clear
7:15 AM 59.0 °F 59.0 °F 100% 30.04 in 10.0 mi Calm Calm - N/A   Clear
7:35 AM 59.0 °F 59.0 °F 100% 30.04 in 10.0 mi Calm Calm - N/A   Clear
7:55 AM 59.0 °F 59.0 °F 100% 30.05 in 10.0 mi Calm Calm - N/A   Clear
8:15 AM 59.0 °F 59.0 °F 100% 30.06 in 10.0 mi Calm Calm - N/A   Clear
8:35 AM 60.8 °F 59.0 °F 94% 30.05 in 10.0 mi Calm Calm - N/A   Clear
8:55 AM 62.6 °F 59.0 °F 88% 30.06 in 10.0 mi Calm Calm - N/A   Clear
9:15 AM 62.6 °F 59.0 °F 88% 30.06 in 10.0 mi Calm Calm - N/A   Clear
9:35 AM 62.6 °F 59.0 °F 88% 30.06 in 10.0 mi Calm Calm - N/A   Clear
9:55 AM 64.4 °F 59.0 °F 83% 30.06 in 10.0 mi Calm Calm - N/A   Clear
10:15 AM 66.2 °F 59.0 °F 78% 30.05 in 10.0 mi West 4.6 mph - N/A   Clear
10:35 AM 68.0 °F 60.8 °F 78% 30.05 in 10.0 mi Calm Calm - N/A   Clear
10:55 AM 68.0 °F 60.8 °F 78% 30.04 in 10.0 mi SW 5.8 mph - N/A   Clear
11:15 AM 71.6 °F 60.8 °F 69% 30.03 in 10.0 mi SW 6.9 mph - N/A   Clear
11:35 AM 71.6 °F 62.6 °F 73% 30.03 in 10.0 mi WSW 5.8 mph - N/A   Mostly Cloudy
11:55 AM 73.4 °F 60.8 °F 65% 30.02 in 10.0 mi WSW 6.9 mph - N/A   Mostly Cloudy
12:15 PM 73.4 °F 60.8 °F 65% 30.00 in 10.0 mi SW 10.4 mph - N/A   Scattered Clouds
12:35 PM 73.4 °F 62.6 °F 69% 29.99 in 10.0 mi West 5.8 mph - N/A   Partly Cloudy
12:55 PM 73.4 °F 62.6 °F 69% 29.98 in 10.0 mi WSW 10.4 mph 16.1 mph N/A   Partly Cloudy
1:15 PM 73.4 °F 62.6 °F 69% 29.97 in 10.0 mi West 8.1 mph - N/A   Partly Cloudy
1:35 PM 75.2 °F 62.6 °F 65% 29.96 in 10.0 mi WSW 10.4 mph - N/A   Partly Cloudy
1:55 PM 73.4 °F 62.6 °F 69% 29.95 in 10.0 mi West 8.1 mph - N/A   Partly Cloudy
2:15 PM 73.4 °F 62.6 °F 69% 29.95 in 10.0 mi West 6.9 mph - N/A   Partly Cloudy
2:35 PM 73.4 °F 62.6 °F 69% 29.95 in 10.0 mi WSW 9.2 mph - N/A   Scattered Clouds
2:55 PM 73.4 °F 62.6 °F 69% 29.95 in 10.0 mi West 6.9 mph - N/A   Mostly Cloudy
3:15 PM 73.4 °F 62.6 °F 69% 29.95 in 10.0 mi West 3.5 mph - N/A   Mostly Cloudy
3:35 PM 73.4 °F 62.6 °F 69% 29.95 in 10.0 mi Calm Calm - N/A   Scattered Clouds
3:55 PM 75.2 °F 59.0 °F 57% 29.95 in 10.0 mi WNW 6.9 mph - N/A   Mostly Cloudy
4:15 PM 71.6 °F 60.8 °F 69% 29.96 in 10.0 mi NW 5.8 mph - N/A   Partly Cloudy
4:35 PM 73.4 °F 60.8 °F 65% 29.96 in 10.0 mi NNW 6.9 mph - N/A   Scattered Clouds
4:55 PM 71.6 °F 60.8 °F 69% 29.97 in 10.0 mi NNW 8.1 mph - N/A   Partly Cloudy
5:55 PM 66.2 °F 59.0 °F 78% 30.00 in 10.0 mi Calm Calm - N/A   Mostly Cloudy
6:15 PM 64.4 °F 59.0 °F 83% 30.01 in 10.0 mi Calm Calm - N/A   Mostly Cloudy
6:35 PM 62.6 °F 59.0 °F 88% 30.01 in 10.0 mi Calm Calm - N/A   Scattered Clouds
6:55 PM 60.8 °F 59.0 °F 94% 30.02 in 10.0 mi Calm Calm - N/A   Clear
7:15 PM 57.2 °F 57.2 °F 100% 30.02 in 10.0 mi Calm Calm - N/A   Clear
7:35 PM 59.0 °F 57.2 °F 94% 30.03 in 10.0 mi Calm Calm - N/A   Scattered Clouds
7:55 PM 62.6 °F 59.0 °F 88% 30.04 in 10.0 mi Calm Calm - N/A   Mostly Cloudy
8:15 PM 64.4 °F 51.8 °F 64% 30.05 in 10.0 mi North 13.8 mph 18.4 mph N/A   Partly Cloudy
8:35 PM 62.6 °F 46.4 °F 55% 30.06 in 10.0 mi North 11.5 mph 17.3 mph N/A   Clear
8:55 PM 62.6 °F 48.2 °F 59% 30.07 in 10.0 mi North 9.2 mph - N/A   Partly Cloudy
9:15 PM 59.0 °F 41.0 °F 51% 30.08 in 10.0 mi North 10.4 mph - N/A   Scattered Clouds
9:35 PM 59.0 °F 39.2 °F 48% 30.08 in 10.0 mi North 13.8 mph 17.3 mph N/A   Scattered Clouds
9:55 PM 57.2 °F 35.6 °F 44% 30.09 in 10.0 mi North 12.7 mph 17.3 mph N/A   Scattered Clouds
10:15 PM 57.2 °F 35.6 °F 44% 30.09 in 10.0 mi North 12.7 mph - N/A   Scattered Clouds
10:35 PM 57.2 °F 35.6 °F 44% 30.10 in 10.0 mi North 9.2 mph - N/A   Mostly Cloudy
10:55 PM 55.4 °F 35.6 °F 47% 30.11 in 10.0 mi North 8.1 mph - N/A   Mostly Cloudy
11:15 PM 55.4 °F 35.6 °F 47% 30.11 in 10.0 mi North 9.2 mph - N/A   Scattered Clouds
11:35 PM 53.6 °F 35.6 °F 51% 30.12 in 10.0 mi North 8.1 mph - N/A   Partly Cloudy
11:55 PM 51.8 °F 35.6 °F 54% 30.13 in 10.0 mi North 5.8 mph - N/A   Mostly Cloudy